This demonstration page uses our WeatherBlox Daily Observations layout. Learn more.

Left ArrowRight Arrow

44.89941, -97.11507

Hourly Observations for May 20, 2022

Temp ( °F °C ) Dew Point ( °F °C ) Humidity (%) Winds ( mph kmh ) Pressure ( in mb ) Visibility ( mi km ) Precip ( " mm )
12:53 am 00:53 Cloudy 48 8.9 44 6.7 86 86 WNW 6 9 29.39 995 10 16 0.00 0.00
1:53 am 01:53 Cloudy 48 8.9 44 6.7 86 86 W 8 13 29.38 995 10 16 0.00 0.00
2:53 am 02:53 Mostly Cloudy 48 8.9 43 6.1 83 83 WSW 8 13 29.40 996 10 16 0.00 0.00
3:53 am 03:53 Mostly Cloudy 48 8.9 43 6.1 83 83 WSW 12 19 29.42 996 10 16 0.00 0.00
4:53 am 04:53 Mostly Cloudy 48 8.9 43 6.1 83 83 WSW 7 11 29.39 995 10 16 0.00 0.00
5:53 am 05:53 Cloudy 48 8.9 43 6.1 83 83 SW 7 11 29.39 995 10 16 0.00 0.00
6:53 am 06:53 Sunny 49 9.4 42 5.6 77 77 WSW 13 20 29.41 996 10 16 0.00 0.00
7:53 am 07:53 Sunny 49 9.4 40 4.4 71 71 W 12 19 29.43 997 10 16 0.00 0.00
8:53 am 08:53 Sunny 50 10 40 4.4 68 68 W 10 17 29.46 998 10 16 0.00 0.00
9:53 am 09:53 Sunny 50 10 40 4.4 68 68 W 14 22 29.47 998 10 16 0.00 0.00
10:22 am 10:22 Mostly Cloudy 52 11.1 41 5 66 66 W 18 30 29.47 998 10 16 0.00 0.00
10:39 am 10:39 Mostly Cloudy 52 11.1 41 5 66 66 W 17 28 29.48 998 10 16 0.00 0.00
10:53 am 10:53 Mostly Cloudy 52 11.1 42 5.6 69 69 W 22 35 29.50 999 10 16 0.00 0.00
11:19 am 11:19 Mostly Cloudy 54 12.2 43 6.1 67 67 W 21 33 29.50 999 10 16 0.00 0.00
11:53 am 11:53 Mostly Cloudy 54 12.2 42 5.6 64 64 W 24 39 29.52 1000 10 16 0.00 0.00
12:53 pm 12:53 Cloudy 54 12.2 40 4.4 59 59 W 23 37 29.54 1000 10 16 0.00 0.00
1:53 pm 13:53 Cloudy 53 11.7 41 5 64 64 W 23 37 29.56 1001 10 16 0.00 0.00
2:53 pm 14:53 Mostly Cloudy 55 12.8 41 5 59 59 W 16 26 29.58 1002 10 16 0.00 0.00
3:38 pm 15:38 Cloudy 50 10 44 6.7 80 80 NNW 21 33 29.60 1002 10 16 0.00 0.00
3:53 pm 15:53 Cloudy with Light Rain 50 10 46 7.8 86 86 NW 16 26 29.63 1004 7 11 0.02 0.51
4:32 pm 16:32 Cloudy 50 10 46 7.8 86 86 N 17 28 29.67 1005 10 16 0.02 0.51
4:53 pm 16:53 Cloudy with Light Rain 49 9.4 45 7.2 86 86 NNW 18 30 29.67 1005 8 13 0.02 0.51
5:08 pm 17:08 Cloudy 47 8.3 44 6.7 90 90 N 24 39 29.69 1005 8 13 0.00 0.00
5:23 pm 17:23 Cloudy 47 8.3 43 6.1 86 86 NNW 18 30 29.71 1006 10 16 0.00 0.00
5:53 pm 17:53 Cloudy 47 8.3 42 5.6 83 83 NNW 20 31 29.73 1007 10 16 0.00 0.00
6:53 pm 18:53 Cloudy 45 7.2 38 3.3 77 77 NNW 18 30 29.78 1009 10 16 0.00 0.00
7:07 pm 19:07 Cloudy 45 7.2 38 3.3 77 77 NNW 21 33 29.79 1009 10 16 0.00 0.00
7:16 pm 19:16 Cloudy 45 7.2 38 3.3 77 77 NW 20 31 29.81 1009 10 16 0.00 0.00
7:53 pm 19:53 Cloudy 44 6.7 37 2.8 76 76 NNW 17 28 29.83 1010 10 16 0.00 0.00
8:53 pm 20:53 Cloudy 44 6.7 37 2.8 76 76 N 10 17 29.87 1012 10 16 0.00 0.00
9:38 pm 21:38 Cloudy 43 6.1 38 3.3 82 82 NNW 12 19 29.92 1013 10 16 0.01 0.25
9:53 pm 21:53 Cloudy 43 6.1 37 2.8 80 80 N 13 20 29.91 1013 10 16 0.01 0.25
10:28 pm 22:28 Cloudy 43 6.1 39 3.9 86 86 NNW 16 26 29.96 1014 10 16 0.00 0.00
10:53 pm 22:53 Cloudy 43 6.1 37 2.8 80 80 NNW 16 26 29.95 1014 10 16 0.00 0.00
11:53 pm 23:53 Cloudy 43 6.1 37 2.8 80 80 NW 14 22 29.97 1015 10 16 0.00 0.00

Powered by AerisWeather